Regional Weather Roundup
Issued by NWS

Home | Current Version | Previous Version | Text Only | Print | Product List | Glossary On
Versions: 1 2 3 4 5 6 7 8 9 10 11 12 13 14 15 16 17 18 19 20 21 22 23 24 25 26 27
000
ASCA42 TJSJ 260410
RWRPR
PUERTO RICO/U.S. VIRGIN ISLANDS HOURLY WEATHER ROUNDUP
NATIONAL WEATHER SERVICE SAN JUAN PR
1200 AM AST THU MAY 26 2016

PRZ001-004-260500-
PUERTO RICO

CITY           SKY/WX    TMP DP  RH WIND       PRES   REMARKS
SAN JUAN LMM   PTCLDY    79  73  83 E8        30.04F
PONCE          PTCLDY    79  72  78 CALM      30.02S
CEIBA          CLEAR     79  70  73 E6        30.06F
$$

PRZ006-007-260500-
U.S. VIRGIN ISLANDS

CITY           SKY/WX    TMP DP  RH WIND       PRES   REMARKS
CHARLOTTE AMA  CLEAR     81  72  74 NE6       30.04F
CHRISTIANSTED  CLEAR     79  70  73 NE8       30.04F
$$

HOURLY WEATHER ROUNDUP FOR THE NEWS MEDIA

CITY           SKY/WX    TMP DP  RH WIND       PRES   REMARKS
ORLANDO        CLEAR     73  61  65 NE5       30.20S
NEW YORK       PTCLDY    71  52  50 W7        30.06S
NEWARK         PTCLDY    75  48  38 SW10      30.06R
CHICAGO        CLOUDY    67  65  93 E8        29.95R
HARTFORD       CLEAR     70  50  49 W8        30.01R
BOSTON         CLEAR     77  52  41 W13       29.99R
DALLAS         CLOUDY    82  74  76 S14G23    29.94R
PHILADELPHIA   MOCLDY    72  54  53 SW5       30.10S
LOS ANGELES    PTCLDY    60  52  74 W12       30.07S
WASHINGTON DC  MOCLDY    63  56  78 S3        30.12S



USA.gov is the U.S. government's official web portal to all federal, state and local government web resources and services.